Wind_Speed
9 9 9 10 10 10 10 10 10 10 10 10 11 11 11 11 11 11 11 12 12 12 11 12 12 12 11 11 11 10 10 10 11 9 10 12 12 9 7 6 5 6 7 5 6 6 4 3 5 4 2 1 0 1 1 1 2 3 3 2 3 3 4 5 6 5 3 3 5 4 4 7 5 4 1 1 1 2 2 4 4 2 3 2 2 2 15 31
9 9 10 10 10 11 11 11 11 11 11 11 11 11 11 11 11 11 11 12 12 12 12 12 12 13 12 11 11 11 11 10 9 11 13 14 13 12 10 8 7 7 7 7 8 8 6 3 4 4 3 1 1 1 0 1 2 2 3 2 4 6 5 5 5 4 2 4 5 5 4 6 6 4 2 2 5 3 4 6 4 5 5 3 3 12 23 31
10 10 10 11 11 11 12 12 12 12 12 12 12 12 12 11 11 11 11 11 12 12 13 13 13 14 13 11 10 10 10 8 6 8 7 7 7 12 12 11 9 8 8 8 8 9 7 4 6 7 3 1 2 0 1 1 2 2 3 2 6 7 5 6 6 6 6 4 3 5 2 4 6 3 2 4 6 4 7 8 4 8 11 5 4 12 22 27
11 11 11 12 12 12 12 12 12 12 13 12 12 13 12 12 12 12 12 11 12 12 13 13 14 14 13 10 8 9 8 5 3 3 4 7 4 5 12 13 11 9 9 8 7 8 6 4 6 6 3 1 3 2 2 3 2 2 4 5 7 4 4 8 7 7 7 4 4 4 1 3 6 3 3 4 4 7 9 10 10 12 13 9 6 10 18 21
12 12 12 12 13 13 13 13 13 13 13 13 12 12 12 13 12 12 12 11 12 12 13 13 14 14 12 9 7 7 6 5 2 2 3 6 6 2 8 12 12 11 9 9 9 8 6 4 5 3 3 2 2 2 3 6 4 2 5 8 7 3 4 9 6 5 5 2 3 4 3 5 2 2 5 7 8 10 7 9 12 13 12 11 12 13 15 16
12 12 12 13 13 13 13 14 14 14 14 14 13 13 12 12 12 12 12 11 12 12 12 12 13 14 11 7 5 4 2 1 5 4 7 8 6 3 6 11 12 11 10 11 9 7 5 3 4 2 2 2 3 4 5 4 4 3 6 6 7 6 6 8 5 4 3 3 6 5 4 2 1 5 5 9 15 14 7 7 11 12 12 13 15 14 14 14
12 12 12 13 13 13 14 14 15 15 15 15 14 14 13 13 13 12 12 11 11 11 11 11 12 12 10 6 3 3 3 5 10 9 11 10 6 4 6 11 12 11 11 11 9 6 4 4 3 4 3 1 4 6 5 2 4 6 6 5 7 8 9 10 7 6 4 6 9 3 3 3 6 7 2 8 18 16 9 6 8 9 8 12 13 14 16 17
12 13 13 13 13 13 13 14 14 15 15 15 16 15 15 14 14 14 13 11 10 11 11 10 11 11 8 3 1 4 1 8 13 11 11 8 6 5 7 11 13 13 12 13 11 7 5 5 5 4 2 4 4 4 4 1 2 6 8 6 4 5 8 9 7 8 7 8 6 3 7 9 9 4 5 17 21 12 9 8 7 4 6 11 13 15 16 15
13 13 13 13 13 13 12 13 14 14 15 15 16 16 15 15 15 15 14 13 11 10 10 9 9 8 6 0 4 2 4 7 9 9 8 7 7 7 9 11 13 15 13 13 12 9 6 5 6 5 4 4 4 4 3 1 4 7 8 5 4 6 8 7 7 8 7 5 3 3 13 11 6 3 9 23 20 9 9 9 9 6 6 10 12 15 16 16
14 14 14 14 14 14 13 14 14 14 14 15 15 15 15 15 14 15 15 15 13 11 10 9 8 5 3 2 4 2 7 6 7 8 8 8 9 10 12 13 14 16 13 10 11 11 8 7 6 4 4 2 4 4 2 4 4 5 5 5 7 8 9 6 7 9 5 5 6 7 15 12 3 1 10 20 9 4 8 10 9 8 10 11 11 12 14 15
15 15 15 16 16 16 15 15 16 16 16 16 15 14 14 14 14 14 15 15 14 11 11 8 7 5 4 4 4 5 7 6 8 9 9 10 12 13 13 14 14 16 14 9 11 14 11 9 6 5 1 2 3 3 3 5 2 2 2 6 9 7 9 9 8 9 3 4 8 10 12 12 2 3 14 22 6 5 5 8 8 9 11 12 11 12 11 12
15 15 16 17 17 17 16 16 17 17 18 17 17 16 15 14 13 13 14 15 14 12 11 9 7 6 4 2 6 12 12 12 13 13 12 12 14 14 13 15 15 15 15 9 8 11 11 8 6 5 4 1 1 2 3 3 0 2 1 5 11 7 10 15 9 7 5 3 5 9 5 9 5 10 19 23 9 1 5 8 9 9 11 10 10 10 9 13
14 15 16 17 17 17 17 16 17 18 18 18 18 17 16 15 14 14 15 15 15 12 11 9 7 7 4 2 7 12 16 17 17 16 16 15 14 14 14 15 16 15 14 10 6 4 4 7 8 6 3 2 3 2 0 2 2 4 2 1 8 7 10 13 3 3 5 4 6 9 3 8 11 17 20 18 9 4 7 11 11 10 10 9 9 8 10 12
13 14 16 17 17 17 17 17 18 19 19 20 19 18 17 16 15 15 15 17 15 11 10 7 6 7 4 5 8 8 13 15 16 19 19 17 15 13 14 15 14 14 13 10 7 3 2 4 6 3 1 3 3 4 3 5 3 4 2 1 3 2 9 9 3 4 3 4 7 8 3 9 13 18 16 11 6 5 9 13 12 11 10 9 9 9 11 11
13 14 15 17 17 17 17 18 19 20 22 23 22 20 18 16 15 16 16 17 14 9 7 5 8 7 1 7 9 8 11 12 17 23 21 19 17 11 11 14 13 10 10 8 6 4 3 4 4 2 2 2 1 3 4 4 3 2 2 4 2 3 8 11 4 6 7 5 5 7 4 8 15 19 15 7 5 7 9 13 13 11 10 9 9 9 11 11
13 13 15 16 16 17 17 18 20 22 24 24 24 22 19 17 16 16 16 15 11 7 6 5 10 7 0 5 4 5 10 12 16 20 19 20 18 11 9 11 8 6 5 4 4 4 5 4 2 2 1 2 2 2 3 4 5 2 3 6 5 5 4 8 8 6 10 4 3 7 6 6 11 15 13 6 5 8 9 13 13 12 11 10 9 9 10 10
12 13 14 15 16 16 17 18 21 23 25 24 24 23 20 18 16 14 11 6 3 6 7 4 8 6 2 3 2 5 9 15 16 14 16 19 17 13 9 6 5 6 6 3 5 4 2 2 1 1 1 2 2 5 3 3 6 4 3 5 6 7 4 4 9 6 6 7 6 10 9 10 14 13 11 6 5 7 8 12 13 11 10 10 10 9 10 10
12 13 14 14 15 16 17 18 21 23 23 23 24 23 18 12 7 4 3 9 9 7 5 1 4 3 4 5 5 6 5 10 12 10 15 17 15 13 9 6 5 8 6 3 2 3 1 1 2 1 2 3 3 5 4 7 9 7 5 5 4 6 6 7 9 4 3 5 8 8 10 15 18 16 14 11 7 6 10 11 10 10 11 10 9 10 11 11
12 13 14 15 15 16 17 18 21 22 22 25 25 18 9 3 5 5 8 10 8 5 2 3 5 3 4 6 7 6 4 6 7 8 13 14 12 12 8 5 6 7 5 1 2 2 3 3 4 2 4 8 7 8 11 14 12 10 7 5 5 7 7 8 12 7 3 6 8 9 13 15 17 18 18 17 12 11 14 11 9 10 11 11 9 10 11 12
11 12 13 15 15 16 17 18 21 19 20 27 27 14 3 3 4 3 2 1 5 4 1 5 8 4 4 4 3 5 5 6 6 6 13 15 12 11 5 3 6 4 3 5 4 2 4 4 3 7 12 13 11 12 16 15 10 7 5 6 8 9 9 10 14 11 5 6 9 12 17 17 16 18 18 16 12 12 16 14 13 13 13 13 12 13 13 14
11 12 13 15 15 16 17 18 20 17 17 24 22 9 2 2 2 3 4 5 10 10 7 8 11 10 9 6 5 7 3 4 4 4 13 16 14 11 4 3 5 2 4 6 3 0 4 6 8 15 17 13 9 11 13 11 8 8 7 8 9 8 12 13 13 13 5 5 9 11 16 19 16 17 16 13 12 14 17 16 17 17 14 12 14 17 16 14
12 12 13 15 15 16 16 17 19 15 15 20 15 5 2 1 1 2 1 4 10 9 9 10 10 11 15 18 16 8 1 5 6 3 12 14 10 8 4 5 7 5 5 4 1 1 3 6 15 19 13 7 6 6 7 8 9 8 6 7 8 7 12 12 11 14 5 4 8 9 13 16 13 15 14 14 15 16 16 16 18 18 14 13 15 16 16 16
13 13 14 14 15 16 16 17 18 12 14 17 9 4 2 3 1 1 2 2 8 5 6 9 8 7 12 20 20 11 7 10 8 6 15 15 6 5 5 7 7 3 6 8 8 7 5 8 16 16 6 5 8 6 5 6 6 7 6 6 8 7 9 9 6 9 4 3 6 8 11 12 9 11 12 15 19 16 15 16 17 17 14 15 17 15 14 17
13 13 14 14 15 16 15 18 16 9 15 14 4 2 5 5 1 2 1 1 5 6 7 10 7 6 12 13 11 13 10 8 6 6 16 17 5 3 5 6 6 4 7 13 14 12 10 8 10 9 7 9 11 8 6 6 7 9 9 8 11 12 12 11 6 6 5 4 5 6 12 11 9 12 13 13 16 15 14 15 16 18 16 15 17 16 15 17
14 14 14 14 15 15 15 17 12 9 15 9 1 3 7 5 0 3 0 1 3 6 6 7 5 6 12 7 7 11 5 5 6 5 15 18 9 4 3 4 5 7 12 13 11 10 11 7 5 7 9 10 11 9 8 8 10 8 8 13 18 16 13 13 10 8 6 6 4 1 8 9 7 12 13 10 10 12 11 13 16 19 17 13 15 18 17 16
16 16 15 15 15 15 14 10 8 12 14 4 1 7 8 5 1 4 1 3 4 5 2 3 3 4 6 4 6 7 2 5 4 5 13 16 12 6 2 2 2 7 10 7 5 4 7 7 8 9 10 10 9 7 9 11 9 9 6 13 17 13 10 12 9 5 3 5 4 2 2 10 6 7 10 10 9 11 10 12 16 17 15 12 13 16 16 15
17 16 16 15 15 14 8 4 9 13 8 2 5 9 8 6 2 4 1 3 4 3 3 1 0 2 3 2 4 7 2 5 1 4 5 7 6 3 3 6 3 3 5 3 3 3 5 7 8 10 9 7 7 9 11 12 8 8 4 9 10 9 9 8 6 5 4 3 4 2 4 8 13 6 10 12 10 10 11 14 17 16 13 12 13 15 16 17
17 17 16 15 15 14 10 8 11 9 4 5 9 8 7 5 2 1 1 3 4 2 3 2 0 1 1 2 1 4 2 2 3 1 2 2 2 2 5 9 6 4 3 5 6 5 5 7 10 11 7 6 9 11 9 13 8 7 3 7 7 6 6 5 5 5 2 4 4 4 5 4 14 7 7 9 9 9 13 17 18 16 12 12 14 15 16 17
17 16 16 16 14 14 13 11 10 8 6 7 8 8 5 3 2 3 2 4 3 1 1 1 1 1 2 1 3 1 2 3 2 3 4 2 1 2 4 7 5 4 4 5 9 6 2 5 8 10 7 8 10 7 8 13 9 4 6 5 5 3 3 5 3 1 2 5 5 6 5 3 13 7 4 3 5 9 13 14 14 13 11 12 13 14 15 14
17 15 16 15 12 12 10 12 14 11 8 7 8 6 3 2 1 2 3 5 1 1 1 1 1 1 3 4 2 2 1 2 1 2 3 1 3 4 1 2 3 3 4 3 8 7 2 1 3 5 6 7 5 2 3 8 6 3 7 5 6 5 5 4 1 4 2 8 6 10 11 7 8 6 5 4 5 8 9 8 9 10 11 13 12 12 13 14
17 15 14 14 15 14 7 7 10 9 7 7 7 6 4 1 3 2 7 3 1 2 0 1 1 2 4 4 2 2 1 2 1 2 0 1 2 4 1 1 2 2 3 5 7 7 3 1 2 3 3 4 6 4 2 2 4 5 4 4 3 4 4 4 4 4 2 9 6 12 13 10 10 7 3 5 6 5 7 8 9 11 12 12 11 11 12 13
14 14 14 15 18 18 12 7 6 4 6 4 3 3 2 1 1 6 6 3 2 3 1 1 1 2 2 2 1 3 2 1 1 4 4 3 2 2 3 4 4 1 4 5 5 5 4 6 5 2 1 5 6 3 3 5 3 5 4 5 1 4 3 2 3 1 4 8 5 9 8 7 12 8 4 8 10 8 9 9 10 11 11 11 11 11 12 10
11 11 12 15 18 21 20 16 11 8 6 5 4 3 3 1 5 6 3 1 2 2 2 1 1 3 3 2 3 4 3 2 3 3 2 3 3 4 5 5 5 2 4 4 2 3 4 6 4 2 3 4 8 6 3 2 4 7 6 6 5 3 2 3 4 2 5 8 4 5 5 5 8 4 9 15 15 13 9 9 11 11 11 12 11 11 10 10
10 10 10 13 17 21 22 21 16 12 7 7 5 4 3 4 5 1 1 4 4 2 2 2 2 2 3 1 4 3 2 4 4 4 2 2 2 3 5 6 6 3 1 2 2 2 4 9 5 8 3 6 12 12 9 5 5 7 5 6 6 5 5 4 5 6 7 6 4 2 5 5 3 2 8 12 9 8 6 7 8 8 9 10 10 10 11 12
11 10 9 10 15 19 22 22 18 13 10 8 4 2 4 7 4 0 2 4 3 3 2 1 3 1 3 3 4 4 5 5 2 5 3 3 3 4 3 5 8 5 3 3 3 3 4 10 7 5 2 9 13 11 8 7 2 3 4 4 4 6 6 4 6 6 3 2 4 3 5 5 4 5 7 7 8 8 6 7 6 8 10 10 11 12 12 13
12 10 8 9 15 18 20 23 20 16 12 7 3 4 7 7 3 3 3 1 1 1 3 5 1 1 5 2 3 4 3 3 1 2 3 3 3 5 5 4 8 11 8 6 3 3 4 7 3 1 1 4 6 4 4 4 3 3 4 4 4 4 6 5 6 2 2 4 6 4 6 6 5 8 6 3 6 7 7 9 9 10 11 9 10 11 11 12
12 10 7 10 16 16 18 24 23 19 11 5 4 7 6 4 3 4 2 0 0 2 3 3 2 2 3 2 3 3 1 2 1 2 2 2 2 4 6 4 6 13 15 10 4 4 6 6 3 4 3 3 3 2 2 2 2 5 4 6 2 3 2 3 2 2 2 8 7 6 11 9 5 8 4 5 5 8 8 7 7 9 9 8 10 11 11 11
9 7 8 14 20 17 17 24 24 17 7 3 9 10 5 3 4 4 2 1 1 2 2 3 3 1 2 3 3 1 2 2 1 1 2 2 3 4 5 3 3 9 14 10 4 4 4 6 5 1 2 2 4 2 2 5 3 5 4 2 4 1 3 2 3 3 6 9 7 10 16 10 7 9 5 4 8 10 8 6 6 8 8 8 9 11 13 11
5 3 6 10 16 18 22 26 22 11 3 4 9 9 4 4 4 4 3 2 1 1 2 5 4 3 3 4 4 2 3 4 1 1 2 2 4 2 3 2 1 3 6 5 3 4 1 3 5 2 1 1 3 1 3 2 1 1 1 2 1 3 4 3 3 3 6 10 8 10 13 10 8 6 5 7 8 7 6 6 7 8 8 7 8 9 11 11
3 2 4 3 7 17 26 24 14 5 4 6 8 7 3 2 4 4 5 5 3 3 4 5 5 5 5 6 7 5 4 6 5 3 3 4 5 4 2 1 2 3 3 4 4 3 2 2 5 3 3 2 1 4 6 6 4 2 2 3 2 2 1 1 2 2 3 8 8 8 10 10 7 4 7 7 7 5 3 8 8 9 9 9 9 8 9 10
3 3 4 4 9 20 25 16 5 4 5 6 8 8 5 4 4 4 5 5 5 4 3 4 5 6 6 7 7 5 4 5 7 6 5 5 6 6 3 3 4 1 2 3 1 1 0 3 5 4 4 5 5 4 6 8 8 6 6 7 7 6 4 5 7 5 4 6 8 9 10 9 7 3 5 4 5 6 8 9 8 8 9 10 9 9 9 8
4 4 2 5 17 27 20 6 4 4 4 5 6 6 5 4 5 5 4 5 6 4 2 4 6 7 7 8 7 6 5 4 7 7 6 9 11 10 6 6 7 4 2 1 2 3 3 1 2 5 6 8 11 7 4 7 7 4 4 6 7 7 7 8 10 8 5 5 6 8 10 6 6 11 10 8 11 11 9 8 8 8 9 10 9 10 9 9
3 3 2 5 22 27 11 4 6 4 4 3 3 3 4 3 4 5 5 4 5 4 3 4 7 8 8 9 9 8 6 5 9 10 8 8 11 13 11 9 7 5 3 2 3 3 4 3 2 6 5 6 12 12 6 3 2 4 5 6 8 8 9 11 9 5 6 7 6 8 10 6 4 12 16 15 13 10 9 10 10 10 10 9 9 10 10 11
2 3 2 7 22 21 6 5 7 6 7 6 5 6 4 3 5 7 7 5 5 5 5 6 6 8 8 8 8 9 7 6 9 11 10 7 7 12 15 14 10 6 4 5 4 4 4 3 4 5 5 5 6 7 8 4 3 4 4 6 10 11 10 8 4 2 6 10 11 11 11 7 6 10 14 18 19 17 16 15 12 11 11 10 10 10 11 12
2 3 2 6 16 13 4 5 6 6 7 8 9 9 8 5 6 9 10 7 5 5 5 5 4 4 7 8 8 9 9 9 8 7 7 6 4 6 10 14 14 10 8 9 6 4 4 5 5 6 7 8 8 8 6 4 4 4 4 7 12 13 13 9 5 6 8 10 13 12 10 9 10 11 14 21 23 22 22 20 14 10 10 11 11 10 11 11
1 3 2 3 7 6 4 5 6 5 5 6 7 7 11 11 6 6 7 7 8 8 6 6 3 3 4 7 9 11 11 11 10 6 4 5 4 3 5 10 12 13 15 15 10 5 1 5 9 12 13 12 14 14 7 4 5 6 7 10 11 10 11 10 8 9 10 10 12 12 12 14 14 13 17 22 23 23 24 23 17 11 11 13 12 10 10 11
1 2 2 2 3 5 5 5 5 5 4 4 4 4 10 14 9 5 6 5 7 8 6 6 7 8 8 8 11 12 11 12 12 11 10 8 5 6 6 5 7 11 13 12 8 5 1 5 11 17 19 18 18 20 16 11 10 10 9 10 10 8 9 10 11 12 11 10 12 11 13 16 16 16 19 22 22 22 23 23 20 18 18 16 14 12 12 13
2 1 2 2 2 3 4 2 2 2 2 2 2 3 7 11 8 5 4 3 3 3 4 5 7 8 7 6 6 7 8 10 11 9 7 5 6 8 7 4 5 7 6 5 5 4 3 6 11 15 18 19 19 20 20 17 16 14 13 14 14 14 14 15 17 17 14 14 16 15 17 21 18 16 20 23 24 23 21 21 21 22 22 21 19 17 15 13
1 1 3 2 1 3 2 3 4 4 4 3 3 3 4 6 6 3 1 2 3 2 4 3 1 3 6 6 4 4 5 4 4 3 4 6 7 5 5 6 4 2 2 3 3 2 3 6 11 15 18 18 19 20 20 20 19 18 19 20 20 20 22 23 23 22 22 23 23 22 25 26 19 17 21 23 22 19 17 18 20 22 24 24 23 21 18 14
1 1 2 3 2 3 2 1 2 4 4 4 4 4 3 4 4 1 1 1 3 3 1 2 6 6 5 5 3 4 3 2 1 3 5 8 8 4 3 5 5 7 7 5 3 3 5 7 10 13 13 14 17 19 19 20 21 22 23 22 21 23 24 25 23 21 20 24 26 27 28 23 18 19 22 21 19 18 18 20 21 22 24 25 24 21 16 14
3 2 2 2 4 3 1 1 1 2 4 4 3 3 3 3 2 3 3 3 4 1 3 4 6 6 4 6 6 4 1 1 3 6 5 5 7 6 5 5 7 10 9 5 3 3 4 4 6 9 8 9 13 18 22 22 22 23 22 22 23 23 22 21 21 20 21 24 25 25 21 17 16 19 21 20 20 21 21 22 23 22 21 18 15 14 14 14
2 3 1 0 4 4 2 2 1 2 4 2 0 2 3 3 3 4 3 2 3 4 5 5 6 6 5 8 8 3 1 4 7 8 7 8 9 9 8 9 10 9 7 7 5 3 4 4 4 6 7 7 11 16 19 17 14 14 16 22 26 26 23 22 22 22 24 22 20 19 18 16 16 16 16 17 18 18 18 18 15 13 12 12 12 13 13 13
Wind_Direction
9 9 5 4 2 0 360 359 2 1 3 1 1 1 0 1 358 358 355 354 355 355 355 349 347 343 338 335 330 326 322 309 295 273 248 266 268 251 247 241 219 203 204 203 182 170 145 164 200 174 134 55 353 267 245 152 95 62 99 157 245 204 211 197 197 206 176 273 266 263 224 180 248 274 219 335 341 284 260 267 263 285 20 18 302 146 150 158
359 359 357 357 356 355 354 354 355 354 355 355 355 354 354 354 351 351 349 348 348 348 351 347 345 341 336 335 330 331 326 313 298 273 269 282 271 247 236 227 217 204 197 195 197 178 145 175 198 133 87 83 283 311 276 266 131 129 135 178 234 206 218 204 203 227 205 261 256 261 240 185 221 227 119 243 263 271 241 265 278 267 281 8 81 136 150 157
352 353 352 351 351 351 350 350 350 348 349 349 349 349 348 348 347 346 344 342 341 342 344 343 343 339 336 332 333 338 326 319 303 276 295 327 277 244 231 225 224 216 211 209 209 191 164 170 173 138 86 276 260 64 73 283 201 181 147 216 245 216 237 248 238 247 238 236 247 271 246 187 235 216 136 221 254 253 220 237 224 239 244 213 147 148 155 160
349 349 347 347 347 346 346 346 344 343 343 343 344 344 343 342 342 341 340 338 336 336 337 340 339 338 338 330 334 334 330 345 298 275 10 20 7 245 225 225 225 219 221 216 205 193 181 156 156 142 106 248 289 55 162 233 212 187 164 211 240 203 244 259 244 244 238 214 209 242 258 253 251 197 191 184 251 263 229 228 209 221 230 192 173 173 166 167
346 345 345 343 342 343 343 341 339 339 337 337 338 337 338 336 336 335 336 335 332 332 333 337 335 336 337 328 335 331 348 22 282 253 9 360 8 314 219 219 218 215 211 205 197 186 190 158 122 103 101 214 283 63 225 226 163 173 218 225 239 201 247 263 250 238 223 213 241 249 265 261 238 191 216 184 227 251 221 219 213 220 225 182 177 180 175 179
342 341 341 338 338 339 339 337 334 334 332 332 331 332 333 331 331 330 330 330 329 328 328 332 332 333 332 325 336 341 25 330 270 269 301 320 334 294 212 210 212 210 204 201 198 185 184 136 108 141 146 207 206 192 240 230 156 220 253 240 243 224 241 265 266 255 226 247 260 254 255 256 318 273 234 198 231 244 217 193 199 220 220 180 170 172 178 189
337 336 335 334 334 334 336 334 329 328 327 326 325 326 326 325 326 324 325 325 322 323 325 329 329 330 330 325 327 16 85 255 278 290 292 301 301 267 205 207 207 206 204 198 193 178 158 126 160 178 144 249 219 206 239 234 172 219 256 255 248 227 234 255 266 280 276 250 251 276 304 263 249 270 295 236 242 244 238 212 198 220 202 163 160 175 187 193
333 332 332 331 332 334 335 329 325 324 321 320 319 319 320 320 319 318 319 318 317 317 316 322 324 325 325 319 14 4 15 256 280 294 291 287 272 244 206 205 204 207 204 206 203 181 158 155 190 177 150 247 206 204 247 311 193 216 238 252 254 232 239 258 270 274 270 255 252 303 282 253 235 268 312 266 259 250 233 232 222 192 143 158 176 188 193 197
333 333 333 333 334 339 337 331 328 323 320 318 316 315 315 314 313 312 312 311 313 309 307 315 314 316 309 298 90 357 271 258 282 291 288 273 251 231 212 209 207 208 206 217 212 184 177 188 212 198 195 228 193 216 237 231 243 217 224 251 266 271 273 277 276 264 260 253 196 241 269 263 246 281 283 265 264 253 216 224 225 186 168 186 191 193 195 201
337 338 338 337 341 344 342 338 333 328 325 321 318 317 314 311 308 305 304 303 305 303 303 305 302 300 263 178 103 274 268 279 289 283 280 262 243 228 218 216 212 211 209 215 204 187 187 195 200 172 175 207 196 223 188 184 226 208 221 266 259 272 285 264 261 266 264 253 195 211 264 274 280 221 268 268 263 168 198 226 229 206 215 212 200 203 200 203
341 342 341 342 345 346 346 342 336 333 329 326 324 322 317 315 310 305 301 295 293 293 293 293 293 271 216 168 158 238 268 281 282 280 274 257 241 234 228 223 218 215 213 212 208 206 209 204 163 114 188 221 203 249 231 204 219 225 254 304 278 289 296 261 256 266 256 262 207 189 259 283 316 177 248 262 259 113 197 236 240 224 231 225 212 212 203 211
341 342 343 344 346 348 349 344 338 334 330 328 324 322 320 316 313 308 302 295 287 283 279 278 275 237 200 169 213 242 262 268 272 275 267 253 240 236 233 228 226 225 222 223 229 223 225 220 163 153 226 208 238 282 246 221 72 286 20 323 291 328 307 272 260 242 196 231 185 147 269 284 245 224 241 255 261 356 265 259 252 238 239 236 223 216 211 219
338 340 340 341 345 350 351 345 340 335 331 327 322 320 317 314 312 305 302 297 288 279 269 267 252 212 187 246 241 247 260 262 263 263 256 246 237 233 228 226 228 229 229 231 239 237 232 219 183 186 214 162 252 258 224 1 11 296 17 327 291 338 301 273 247 201 198 204 162 132 261 270 250 245 245 256 265 272 272 266 258 247 245 242 233 224 222 223
334 335 336 338 344 349 349 346 341 337 333 326 322 319 313 310 307 299 296 293 290 281 264 251 214 184 174 254 261 259 259 255 250 248 245 238 229 228 226 222 225 226 232 237 240 255 244 199 169 164 233 178 247 297 339 355 359 297 304 254 288 300 273 280 91 130 219 219 165 145 224 256 262 263 255 255 243 215 248 261 259 253 248 245 240 233 233 227
331 332 333 336 342 347 348 346 341 338 334 327 324 320 313 308 299 293 287 285 290 276 246 207 178 158 125 272 268 260 250 243 245 246 243 235 222 220 224 218 222 226 229 233 233 236 200 164 140 151 259 246 288 315 325 340 350 341 255 269 282 207 263 296 296 179 214 249 158 157 220 252 260 266 263 253 201 195 232 254 258 258 255 250 246 238 241 238
327 328 330 334 340 345 346 345 342 338 333 328 325 321 316 308 294 286 280 280 285 250 199 173 180 163 46 272 264 253 235 228 246 249 239 232 224 218 211 203 204 194 192 201 184 174 162 144 128 159 209 279 208 129 39 353 318 319 210 244 258 228 259 305 296 223 203 212 180 204 225 252 258 262 269 271 208 203 227 252 256 257 258 253 249 241 243 247
322 323 326 333 338 344 346 344 342 339 336 333 330 324 317 309 293 285 277 271 276 191 163 157 178 171 276 263 266 260 233 229 242 243 226 221 218 211 189 167 158 147 131 121 141 138 133 132 140 110 14 277 173 107 63 289 267 280 222 230 250 244 239 277 293 284 185 178 210 228 228 240 253 257 270 271 201 194 222 249 255 256 257 253 252 250 248 246
315 317 320 327 333 341 344 342 342 341 339 338 338 329 319 315 304 298 168 135 101 115 141 102 139 159 267 238 240 252 232 227 230 222 211 204 202 202 183 150 129 125 105 65 115 125 60 28 92 64 313 259 174 129 182 228 232 235 224 230 254 247 238 246 269 280 161 211 221 229 238 243 255 262 267 263 236 235 244 246 257 262 260 256 255 253 250 247
309 312 317 322 329 336 339 340 342 343 340 341 344 337 325 15 63 85 123 132 109 111 177 219 164 162 251 235 240 250 234 201 196 199 191 179 183 187 171 137 116 115 112 96 254 185 134 56 67 125 236 236 210 179 205 225 227 229 231 236 249 251 248 242 255 250 202 251 236 227 246 244 252 258 260 262 258 260 261 258 261 262 262 261 255 252 250 248
306 311 314 319 324 331 335 338 341 342 342 346 349 346 354 47 40 49 56 185 217 217 216 204 198 219 276 262 233 224 224 192 189 192 177 172 166 161 159 98 89 92 139 161 207 218 143 137 156 198 221 226 214 200 217 232 241 252 256 255 252 257 264 253 262 264 204 233 238 224 246 249 247 253 254 259 261 261 264 263 259 253 254 257 254 253 250 246
304 307 309 316 319 326 332 335 340 340 342 350 355 5 71 40 327 305 324 286 260 262 274 238 219 242 260 255 225 201 199 206 216 188 176 177 155 150 190 127 125 199 187 162 177 170 143 167 204 218 222 223 218 211 223 240 252 257 250 260 264 255 265 258 260 272 221 205 249 231 249 255 247 251 255 258 257 255 257 257 259 255 248 251 252 253 252 249
301 301 305 310 312 322 327 332 338 337 340 354 10 52 101 340 287 266 289 288 281 263 253 251 238 252 258 256 250 226 218 247 242 205 179 176 159 172 197 147 170 201 160 152 185 199 174 204 224 226 224 232 241 216 217 235 237 243 243 260 267 254 272 268 250 265 244 183 259 249 252 257 249 251 253 255 254 250 252 250 256 258 250 249 247 248 252 254
296 297 303 304 308 318 321 328 334 332 341 354 16 77 44 346 355 150 144 264 291 266 228 240 227 231 246 254 249 222 229 237 233 226 182 169 171 191 169 163 184 160 143 186 206 205 205 227 231 228 215 225 248 236 214 249 242 223 224 245 261 249 262 268 243 266 262 199 268 271 266 263 253 258 254 251 253 253 255 253 255 259 251 249 249 246 247 251
287 291 297 298 305 313 318 324 324 324 340 348 15 55 13 2 58 149 162 252 282 273 238 224 206 208 226 244 229 199 221 226 215 227 179 166 155 154 175 172 157 153 193 207 212 221 233 233 223 211 198 207 234 241 220 253 256 221 209 223 249 246 243 254 270 305 302 274 284 287 285 275 228 239 248 245 251 254 256 255 256 258 250 249 257 254 245 245
282 284 288 293 299 306 315 321 317 325 335 342 99 353 2 3 76 169 202 345 282 285 269 223 200 228 228 219 176 180 214 230 219 204 172 173 166 142 205 176 153 210 213 213 220 238 249 232 168 174 199 204 218 234 214 220 252 248 209 215 236 244 247 258 281 319 316 291 304 312 294 288 197 208 237 242 246 248 250 250 251 256 252 245 254 258 250 245
281 279 282 286 289 300 315 321 317 328 332 329 345 339 344 344 277 193 157 27 279 270 286 213 182 214 221 178 154 143 72 264 240 155 166 185 184 156 188 180 206 231 204 203 225 241 246 216 175 182 198 197 202 237 222 203 239 271 223 212 230 241 248 256 268 295 268 259 294 105 243 286 262 199 220 230 237 243 247 251 249 251 252 242 242 255 258 253
279 276 277 277 279 290 305 303 306 324 331 305 330 335 330 332 285 222 266 0 284 216 151 232 170 164 189 173 162 138 168 266 23 95 159 187 200 165 198 204 214 234 170 142 266 237 209 199 197 199 192 181 193 236 225 186 210 265 217 189 209 225 233 229 223 233 236 275 301 162 148 274 282 237 198 211 219 238 248 251 252 250 248 247 244 249 253 255
280 279 275 270 268 272 271 274 294 310 301 306 328 325 320 318 270 229 17 294 276 136 131 243 186 118 34 346 231 149 206 296 80 310 331 75 200 150 223 223 193 206 167 145 237 243 171 187 202 191 178 188 207 223 194 159 198 253 155 151 168 188 203 163 170 217 272 346 295 222 142 257 279 258 181 201 205 224 241 240 248 252 247 247 248 249 250 254
279 279 278 273 260 257 263 264 270 278 280 308 329 319 315 292 262 68 83 254 272 90 129 220 159 285 26 71 242 171 17 5 90 283 343 50 266 92 210 228 167 216 243 187 231 254 178 200 193 169 174 213 217 215 163 161 204 229 110 97 76 82 84 94 127 139 19 307 253 204 163 229 281 276 144 161 199 219 236 236 246 258 259 254 251 255 257 258
274 274 279 273 243 233 245 249 260 274 277 293 313 306 287 261 348 60 244 253 298 263 247 80 179 234 93 125 261 302 326 323 13 347 8 67 330 20 208 233 114 199 278 281 258 256 235 179 168 171 191 205 184 132 149 169 183 126 95 59 32 20 28 54 43 67 5 279 235 189 184 190 273 286 138 173 215 211 223 235 252 260 262 261 254 256 257 255
275 271 270 258 232 225 223 235 268 277 252 270 315 315 279 298 79 184 241 255 37 270 344 22 270 72 103 143 266 296 209 291 27 115 189 185 2 20 13 297 72 74 318 300 280 270 254 192 206 225 181 127 104 95 23 44 105 105 95 76 30 333 6 24 356 57 212 266 225 188 186 184 235 258 178 236 256 214 206 220 237 244 252 259 257 257 254 253
278 271 262 253 240 234 229 232 271 268 221 226 6 355 289 285 185 219 244 357 356 248 169 191 242 88 118 126 270 242 180 265 225 159 180 174 166 191 208 210 168 90 296 255 269 300 268 220 207 242 176 138 123 120 356 1 74 109 114 122 126 299 339 348 308 116 215 258 234 185 177 207 242 245 220 260 270 241 215 211 222 233 244 253 258 259 259 264
284 276 260 251 242 235 234 240 251 247 210 148 92 43 62 209 242 227 227 305 245 223 117 125 104 134 133 97 261 229 170 227 206 173 189 144 169 238 257 237 174 189 259 228 283 320 291 268 182 149 271 180 150 170 225 275 175 160 156 154 167 210 237 255 264 270 257 265 255 171 164 245 276 262 216 233 250 248 232 222 225 229 238 247 256 266 274 280
290 285 270 256 244 239 239 238 238 232 189 123 100 65 94 228 255 8 152 235 255 344 51 99 81 114 140 190 243 203 185 243 179 153 190 126 159 250 256 239 201 192 223 202 280 206 254 285 193 163 226 183 177 201 199 152 161 185 161 144 177 188 179 205 230 249 260 278 297 186 175 223 274 275 220 223 251 269 251 243 252 257 260 264 272 281 284 278
294 291 284 260 242 240 237 233 228 212 167 116 88 110 188 230 247 24 229 234 280 328 323 327 72 48 287 273 259 218 211 243 142 132 179 166 190 217 206 211 197 178 158 198 251 167 221 270 229 179 183 165 184 211 179 117 129 220 120 120 215 202 178 219 248 236 227 297 290 226 216 234 235 255 249 241 261 272 274 283 289 273 260 259 265 268 267 267
297 296 286 246 236 237 230 226 218 195 163 117 105 206 222 231 205 185 217 204 232 299 331 329 24 239 275 276 276 267 222 235 157 138 202 199 209 213 208 217 194 186 186 195 226 195 231 272 247 186 297 170 189 216 166 149 197 184 135 183 217 158 159 222 272 288 109 260 262 223 239 275 304 279 259 227 248 260 280 280 260 254 257 258 261 263 264 271
302 299 274 235 239 240 227 222 208 185 164 132 193 222 224 226 201 195 214 32 191 97 60 313 263 216 251 263 281 289 294 268 211 168 215 218 231 206 202 237 199 193 204 210 227 233 240 271 252 184 220 277 328 7 17 346 120 128 177 210 161 76 133 176 244 317 251 251 260 254 257 270 295 280 300 27 324 285 281 277 271 280 285 279 273 272 274 280
308 296 265 251 251 244 226 214 193 170 150 165 222 235 218 203 212 196 207 305 311 45 82 233 249 239 241 260 277 302 308 296 145 170 245 241 244 180 166 242 219 200 219 225 252 273 244 264 273 179 176 304 356 19 334 343 68 136 204 220 108 148 234 162 171 220 234 244 254 263 269 268 241 250 277 310 291 281 284 311 321 300 289 285 286 287 290 293
300 287 272 263 252 236 215 197 177 158 150 191 224 238 208 209 227 193 190 194 182 215 220 219 227 245 242 242 255 290 288 276 270 259 245 236 254 182 130 246 252 240 241 203 215 283 334 257 272 3 30 310 18 121 199 270 332 131 257 330 74 179 192 181 185 181 225 244 249 256 267 266 242 227 213 232 238 242 279 331 327 298 292 285 281 283 288 289
239 254 258 238 221 210 194 179 164 165 199 205 225 232 211 235 249 219 203 190 188 218 224 210 204 224 239 239 245 248 249 252 254 244 214 221 260 278 282 175 123 307 288 158 195 283 8 264 261 317 335 284 227 200 189 188 196 193 219 246 248 225 189 241 237 171 222 247 248 248 252 257 261 197 169 205 211 192 303 333 313 299 299 287 277 272 271 279
215 254 242 219 196 181 171 164 170 196 204 220 232 234 236 245 250 250 224 201 213 244 244 210 205 223 244 252 248 228 212 233 230 223 223 226 239 255 248 155 151 250 2 91 175 293 36 257 265 278 274 259 255 231 196 202 200 185 198 211 214 221 235 264 253 220 210 245 246 250 251 254 272 251 170 192 251 280 312 307 283 275 273 270 271 267 263 271
222 227 226 218 188 168 157 173 213 190 208 222 227 233 229 229 238 242 230 208 213 236 284 242 221 228 240 247 250 234 219 220 214 215 225 219 217 221 206 165 157 150 105 138 206 184 158 156 273 257 248 260 278 285 230 229 242 240 230 217 214 216 214 233 245 231 220 240 246 260 261 248 271 282 279 276 279 288 290 266 250 252 253 255 261 267 273 272
223 235 300 211 183 167 156 228 208 207 238 228 253 243 203 210 236 228 217 207 200 208 234 230 225 232 234 233 238 234 226 221 213 217 229 226 221 220 211 190 166 136 118 217 229 194 157 131 231 256 262 266 278 289 280 236 237 272 263 227 219 223 220 229 243 239 233 236 232 255 258 236 247 275 279 282 278 269 253 245 248 257 258 257 261 269 274 268
286 275 310 206 187 176 176 224 206 224 231 232 260 246 224 227 231 237 234 203 180 197 221 226 225 230 229 224 230 227 219 223 224 223 227 226 222 222 219 217 216 208 197 209 212 211 210 190 200 237 260 259 264 282 277 249 199 224 237 229 231 232 233 246 266 247 238 232 228 244 255 243 241 261 276 284 281 272 265 260 255 257 264 267 266 267 263 258
313 270 276 216 199 194 223 231 225 232 220 232 245 240 248 248 222 235 243 229 203 194 220 242 236 234 231 227 240 238 223 230 244 235 222 226 251 245 227 227 231 228 221 213 190 177 216 209 197 219 242 249 250 249 243 230 227 230 220 228 232 227 226 237 247 237 237 232 229 240 253 253 255 266 275 276 275 276 276 273 265 254 259 268 269 263 258 256
306 263 270 230 212 219 245 241 243 240 223 234 239 232 241 247 244 228 222 232 233 219 234 258 255 269 247 227 243 249 237 237 242 240 234 238 259 272 236 227 228 227 226 216 189 153 194 212 215 228 233 238 250 252 235 186 210 230 226 227 229 227 228 234 239 239 242 245 241 241 251 258 259 261 263 265 271 277 278 279 279 274 269 272 269 257 252 257
243 256 243 228 235 233 233 240 244 240 238 238 234 237 237 241 254 237 203 223 233 219 234 250 233 235 236 234 246 249 244 242 239 242 251 252 261 291 289 254 239 242 239 223 194 171 199 222 221 231 236 238 246 252 250 240 235 234 232 234 233 229 228 231 238 242 248 258 254 243 246 254 252 249 254 262 267 269 273 280 286 286 282 279 274 266 260 261
236 265 276 274 265 237 232 256 299 300 321 292 253 280 257 245 248 237 230 291 289 221 225 236 231 240 264 283 276 265 259 251 247 249 259 290 321 323 315 291 260 256 250 234 207 187 210 239 231 234 242 242 242 249 251 251 251 242 237 241 241 238 237 238 241 241 241 249 255 252 247 249 247 243 249 255 258 262 270 278 281 282 283 283 281 277 274 270
279 267 290 302 275 270 296 351 355 332 320 304 261 252 261 260 258 248 260 332 333 277 235 251 321 11 358 357 358 328 313 279 267 302 9 360 337 326 315 303 301 325 304 259 242 206 218 237 233 239 249 247 243 245 244 246 252 250 244 242 242 243 245 245 246 246 246 250 257 259 255 253 251 247 247 250 256 263 268 270 273 278 280 283 284 283 284 288
282 243 299 328 287 277 313 307 301 307 300 282 258 242 244 257 267 323 18 252 284 307 306 355 7 10 354 348 339 306 330 84 171 304 342 337 324 325 327 310 322 340 330 306 289 270 245 231 232 245 253 247 244 246 242 239 241 244 244 241 241 245 248 250 252 253 253 255 256 255 256 257 255 253 254 256 260 263 264 266 271 273 274 278 285 293 306 323
263 278 300 307 280 271 270 243 247 282 272 246 235 269 277 254 277 355 320 247 236 258 87 60 358 346 334 317 311 301 330 73 253 255 256 275 283 286 288 282 294 312 311 290 277 280 270 260 256 261 261 246 241 242 242 239 238 240 243 243 243 244 245 246 248 245 247 252 254 254 255 254 250 249 252 253 254 256 259 263 266 271 280 293 310 331 352 1
279 298 308 223 274 268 257 294 283 241 254 250 248 329 297 284 354 11 308 254 153 135 91 53 350 334 322 303 305 315 286 271 270 264 248 237 241 246 245 245 251 263 274 277 277 253 246 264 268 262 262 255 244 243 245 243 240 237 233 232 237 241 243 245 247 246 245 246 249 250 250 253 258 261 263 265 264 262 263 268 277 294 324 353 9 12 6 358
Height
841 840 839 839 838 837 836 836 835 834 834 833 832 832 830 830 829 828 827 826 826 825 824 823 822 821 820 819 819 818 817 817 816 815 814 811 811 812 812 812 813 813 814 814 815 815 816 817 817 818 819 820 821 821 820 820 821 825 832 839 838 838 833 821 817 814 813 809 805 804 803 805 803 800 798 798 799 798 799 798 795 794 794 795 794 793 792 794
840 840 839 838 838 837 836 836 835 834 833 833 832 831 830 830 829 828 827 826 825 824 824 823 822 821 819 819 818 817 816 815 815 813 810 808 809 810 811 811 812 813 813 813 814 814 816 817 817 818 820 821 823 822 821 821 822 826 835 839 834 829 822 813 811 809 809 808 803 803 803 804 802 799 799 799 799 799 800 797 796 795 794 795 795 795 794 795
840 839 839 838 837 837 836 835 835 834 833 832 832 831 830 829 829 828 827 826 825 824 823 822 821 820 819 818 817 817 816 814 814 811 807 807 807 807 809 811 811 812 812 812 813 813 814 815 816 818 821 823 823 823 823 822 823 825 832 837 827 819 815 811 809 807 806 805 804 802 803 804 801 799 799 799 799 798 798 794 795 795 791 792 796 796 796 796
839 839 838 837 837 836 835 835 834 833 832 832 831 830 830 829 828 827 826 826 825 824 823 822 821 819 819 817 817 817 814 815 814 808 807 807 806 807 808 809 810 811 811 812 812 813 813 814 815 817 821 824 823 823 824 822 822 825 827 828 819 816 815 807 804 805 803 804 804 802 804 803 799 799 798 797 800 797 792 788 788 788 785 789 796 797 796 796
839 838 837 837 836 835 835 834 833 832 832 831 830 830 829 828 827 827 826 825 824 823 822 822 820 819 818 817 818 815 816 821 814 806 807 806 806 807 807 809 810 810 811 811 812 813 813 814 815 818 821 823 824 824 823 819 819 823 821 817 813 816 814 803 802 804 802 803 803 802 803 800 797 798 795 796 797 788 782 782 782 781 780 785 791 793 795 796
838 837 837 836 835 835 834 833 832 831 830 830 829 828 828 827 826 826 825 824 824 823 822 821 820 819 818 817 818 815 819 823 810 804 807 805 806 806 806 808 809 810 810 811 811 812 812 814 816 819 821 821 823 822 819 817 818 821 817 813 812 814 811 803 801 802 802 803 802 801 800 797 798 796 792 792 787 776 774 776 777 777 777 780 785 790 792 793
838 837 836 835 835 834 833 832 831 830 829 828 828 827 827 826 825 825 824 824 823 822 821 821 820 819 818 817 817 817 821 818 805 805 806 804 806 805 806 807 808 809 809 810 810 811 812 814 816 818 820 820 820 818 816 815 817 820 817 811 809 810 808 803 801 802 803 803 800 801 799 797 798 795 792 786 775 771 773 774 774 774 774 778 783 786 787 786
837 836 835 835 834 833 833 832 830 829 828 827 827 826 825 824 824 823 822 822 821 821 820 820 819 818 818 817 817 820 821 813 804 805 805 804 805 804 805 805 806 808 808 808 808 809 811 813 815 816 819 819 817 816 815 816 817 819 815 810 808 807 804 801 802 802 801 801 800 801 798 795 795 796 792 778 767 769 772 773 773 774 775 777 779 781 783 783
836 836 835 834 833 832 832 830 829 829 827 826 826 825 824 823 822 822 821 821 820 820 819 819 818 817 818 817 818 822 817 807 805 805 804 804 804 804 804 804 805 805 806 807 806 808 810 812 812 812 816 816 815 814 813 816 817 813 810 809 807 805 802 801 801 798 799 799 799 801 796 793 794 796 787 767 762 766 768 770 770 772 774 774 775 776 777 778
836 835 834 833 832 831 830 829 828 827 826 825 824 823 823 822 821 820 819 819 818 818 818 818 817 816 817 816 820 822 810 803 805 804 804 804 803 803 803 803 804 803 804 805 805 806 807 809 809 809 812 813 814 814 813 815 813 808 808 808 805 805 802 800 798 796 798 798 797 799 795 790 793 798 784 760 759 764 765 767 767 770 771 769 771 772 772 773
835 834 833 832 831 831 829 828 827 826 825 824 823 822 821 820 819 819 818 817 817 816 816 816 816 816 816 815 820 817 805 803 805 803 804 803 802 802 802 802 802 802 803 803 803 804 804 806 806 808 812 812 813 813 812 810 809 808 808 807 803 804 802 797 797 795 797 795 792 795 795 791 794 797 781 758 758 765 765 766 766 768 766 765 767 767 769 769
835 834 833 831 831 829 828 827 826 825 823 822 821 820 819 819 818 817 816 815 815 815 814 814 815 814 815 816 814 808 802 803 803 802 803 801 801 801 801 802 801 802 802 802 803 803 804 805 805 809 811 811 813 813 811 807 809 807 808 811 805 805 802 790 791 793 794 794 788 794 799 793 790 785 769 757 759 765 766 765 764 765 763 762 763 764 765 763
834 833 832 831 830 828 827 826 824 823 822 821 819 818 818 817 816 815 814 813 812 813 813 813 813 813 815 813 805 801 801 801 800 800 800 799 800 799 800 800 800 802 802 802 803 803 804 805 805 809 809 811 813 811 808 807 809 808 810 813 809 813 805 785 786 791 791 793 786 792 803 791 778 771 761 758 761 765 767 763 761 761 760 759 759 760 760 758
833 832 831 830 829 828 826 825 823 822 820 819 817 816 816 814 814 813 812 811 810 811 811 811 812 813 815 808 798 798 800 798 799 797 797 798 798 798 798 799 800 800 801 802 803 803 804 804 805 808 808 810 810 808 810 811 811 811 814 815 817 822 806 783 787 792 790 792 785 790 804 792 771 762 757 757 761 765 765 760 758 757 756 756 756 756 755 753
832 832 831 829 828 827 826 824 822 820 819 817 815 814 813 812 811 810 810 809 808 810 809 810 811 812 815 806 796 797 797 796 795 793 794 795 795 797 797 798 799 799 800 801 802 803 804 804 806 808 809 808 808 812 816 816 813 815 819 818 820 822 808 788 786 789 787 789 789 791 799 791 772 759 754 756 760 762 762 757 754 754 753 754 753 752 750 748
832 831 830 829 828 826 825 823 821 820 817 815 813 812 810 809 808 807 807 806 807 808 809 811 810 811 814 805 796 796 795 793 791 790 792 793 794 795 796 798 799 799 801 801 802 803 803 804 807 809 810 808 811 816 821 823 820 818 821 820 817 817 815 801 785 782 783 785 789 789 789 784 770 757 753 756 758 759 760 755 752 752 751 751 750 748 747 745
831 830 829 828 827 826 825 823 821 819 816 813 811 809 807 806 804 804 804 805 806 806 808 809 808 811 809 800 797 795 790 789 788 788 789 790 793 794 795 797 798 800 801 801 802 803 804 806 809 811 811 812 814 817 826 834 826 819 821 821 817 814 815 807 787 779 783 784 786 786 785 778 763 754 753 755 757 758 758 754 750 750 749 747 746 745 744 742
830 829 828 828 826 825 824 822 820 817 815 813 809 806 804 803 802 802 803 804 805 807 810 809 810 815 808 796 794 789 785 786 786 786 787 789 792 793 795 796 798 800 801 803 803 804 806 809 811 814 815 814 815 819 826 827 817 812 814 815 816 812 811 809 795 782 782 784 784 786 787 778 766 758 755 753 755 756 754 751 750 748 746 745 744 743 740 739
829 828 827 827 826 825 823 822 819 817 814 811 809 806 802 802 802 802 803 803 804 805 807 806 806 808 801 790 788 785 784 785 784 785 786 788 791 793 794 795 797 800 803 807 807 805 807 812 817 820 816 810 810 815 814 806 802 804 806 808 810 808 805 802 792 781 782 785 785 785 781 774 769 763 756 752 753 754 750 749 750 747 744 742 741 740 737 736
828 827 827 826 825 824 823 821 819 817 814 810 807 804 803 805 804 803 805 804 801 798 798 798 796 794 791 787 785 784 784 784 784 784 785 787 789 792 794 795 798 802 804 806 807 806 807 814 819 814 805 800 802 806 802 797 800 805 808 808 807 807 802 794 786 779 781 785 781 777 772 766 764 759 752 750 751 751 747 746 745 743 741 739 737 735 732 731
827 826 826 825 824 823 822 821 819 817 815 812 809 807 810 813 810 809 810 804 796 794 794 794 793 790 786 784 782 781 782 783 783 784 785 785 787 791 793 796 801 804 804 804 806 807 808 815 814 800 791 792 796 800 800 802 804 805 808 809 807 808 799 788 784 778 779 785 777 772 770 764 761 756 750 749 750 748 742 741 738 734 736 735 733 730 726 723
827 825 825 824 823 823 822 821 819 817 816 814 812 813 816 817 815 815 814 807 797 793 793 792 792 790 784 781 780 780 782 783 782 783 784 785 786 789 790 795 800 801 803 804 806 809 813 815 804 790 789 794 795 798 802 805 806 807 810 812 810 807 796 784 782 777 779 785 775 771 770 760 757 754 750 748 744 739 735 734 731 727 730 730 727 725 721 718
826 824 824 823 822 823 821 820 819 817 816 815 814 816 817 816 816 815 816 813 801 791 789 787 787 787 783 778 776 779 782 780 780 780 780 783 786 787 788 793 797 799 802 802 800 805 811 806 792 788 794 797 796 798 802 804 806 807 808 811 807 801 797 787 779 774 778 782 775 773 770 758 755 753 750 746 737 732 732 730 728 724 724 724 719 718 717 714
824 824 823 822 822 822 820 820 818 818 817 815 816 816 816 816 815 815 814 812 804 790 782 779 780 780 775 772 771 775 778 776 775 776 776 779 784 787 787 789 796 799 797 793 790 793 793 788 785 789 795 796 798 798 802 804 802 799 802 806 799 792 793 788 781 778 780 780 775 777 770 750 747 751 745 739 734 731 731 729 727 721 718 719 715 711 711 709
823 823 822 821 822 820 821 820 817 818 817 815 816 815 816 816 814 816 814 811 805 790 778 775 776 772 766 767 769 771 775 774 770 770 772 774 778 783 785 785 789 792 789 789 791 792 787 782 783 788 792 795 798 798 800 801 795 791 795 794 785 783 787 786 785 787 788 784 778 782 775 744 730 741 741 734 733 731 728 727 723 716 712 715 712 705 703 703
822 822 821 821 820 820 821 819 817 818 816 816 816 815 816 815 814 815 814 813 805 786 776 774 772 767 763 767 769 770 777 774 766 767 769 771 771 774 781 783 782 782 783 787 791 789 783 779 779 784 787 791 799 800 794 794 793 789 785 779 778 783 787 787 789 792 791 786 783 785 784 758 729 731 736 730 731 729 725 724 719 712 708 709 708 702 698 697
821 820 820 820 819 820 820 819 818 817 816 817 815 815 816 813 815 815 811 815 800 774 771 774 770 766 764 767 766 769 778 772 765 768 769 770 771 771 777 781 780 778 777 783 788 782 775 777 779 781 785 791 799 794 782 787 793 785 776 772 773 779 784 787 790 793 791 788 789 783 784 779 745 723 724 722 725 728 723 717 710 705 705 704 704 700 696 692
819 819 818 819 818 819 819 819 818 817 817 816 815 817 815 813 816 812 813 818 791 762 765 768 765 763 763 767 766 767 774 769 767 772 770 771 772 772 776 776 777 777 774 780 783 773 768 774 776 778 786 791 787 776 771 782 786 778 777 778 777 778 782 786 786 791 795 793 793 785 784 786 749 715 719 721 724 728 719 710 701 697 700 700 698 695 691 688
816 816 816 817 817 817 818 818 817 816 815 815 816 816 814 816 815 811 822 819 780 756 763 763 762 765 764 768 769 767 771 771 771 773 772 773 772 773 777 775 775 777 774 775 774 768 767 771 773 774 780 779 770 768 770 775 776 776 781 781 782 784 784 789 787 787 795 791 788 785 783 782 743 709 721 729 726 724 713 706 700 696 697 695 693 690 686 684
813 814 814 815 816 816 816 816 815 814 815 815 816 815 815 816 813 818 828 809 772 762 766 763 765 768 767 770 772 770 772 773 775 775 774 776 774 774 776 775 776 777 777 777 773 769 770 773 774 770 768 765 764 774 778 776 776 778 781 779 782 787 785 791 790 789 794 783 774 774 772 777 752 717 721 726 716 712 707 705 701 696 696 691 689 687 683 680
811 812 812 813 814 814 815 815 813 813 815 815 815 817 816 814 816 824 817 786 770 770 767 766 770 769 769 773 774 772 773 773 775 776 775 777 778 778 779 777 778 782 783 781 775 771 772 774 771 763 762 764 765 774 782 783 781 778 779 779 782 787 787 793 795 796 798 778 762 763 765 773 754 718 714 713 704 704 704 702 696 690 690 685 683 683 679 676
809 809 810 810 810 811 812 812 811 813 814 814 817 817 817 819 818 812 794 774 773 773 766 769 773 771 773 776 774 773 774 773 773 774 775 779 782 780 780 777 778 782 781 778 775 770 768 767 764 761 762 763 762 770 781 783 781 780 780 783 789 796 795 796 795 796 795 773 758 765 771 765 736 708 709 708 699 699 698 696 691 686 685 681 678 677 674 673
806 806 807 808 808 809 809 809 811 813 813 814 817 817 824 827 811 791 783 778 774 768 765 769 772 773 775 775 772 771 774 773 772 774 775 780 784 781 780 779 778 778 776 777 778 770 762 759 763 765 761 758 758 766 773 772 775 779 777 779 789 797 801 800 794 790 784 765 758 770 773 754 723 703 702 698 690 691 691 692 689 684 683 680 676 675 673 673
804 805 805 805 806 807 807 809 810 811 812 814 816 821 830 825 799 782 783 779 770 765 767 771 773 775 775 773 771 769 771 769 768 774 776 780 784 780 777 778 780 778 776 780 779 774 768 758 755 756 751 752 752 751 753 757 768 773 767 769 777 779 783 785 777 770 763 752 759 774 765 740 718 702 694 690 687 687 689 691 691 689 687 684 682 679 676 672
803 803 803 803 804 804 805 807 808 810 813 814 818 825 823 808 791 787 784 776 771 768 767 769 772 775 775 773 772 767 765 765 768 774 775 778 779 774 770 771 775 776 777 779 775 773 773 755 743 746 746 747 747 741 743 751 763 771 767 768 769 762 761 762 757 753 755 757 758 761 748 724 708 697 690 693 690 687 689 691 691 689 685 684 682 678 674 669
802 801 801 800 800 801 802 804 806 809 811 813 820 821 807 791 786 787 780 773 773 771 770 771 771 774 776 772 771 768 764 766 771 772 774 778 775 770 769 766 767 769 767 770 766 763 765 752 743 750 750 749 749 744 744 747 753 765 770 764 758 755 753 756 757 754 762 764 745 735 732 718 705 695 688 692 692 690 691 689 687 685 682 683 682 678 674 671
800 799 799 797 796 798 799 801 804 806 809 813 815 806 792 784 782 780 775 772 773 772 775 779 774 772 774 772 770 770 768 768 771 771 772 774 768 763 765 760 760 762 755 755 756 752 754 748 742 748 749 752 759 754 749 751 751 758 763 754 751 757 757 759 766 762 763 762 738 721 720 718 715 704 688 688 691 688 685 685 688 687 685 685 683 680 677 674
798 798 796 792 792 794 796 799 802 804 809 811 807 794 784 782 780 777 775 773 773 774 778 783 779 772 774 776 771 769 770 771 773 772 771 771 761 754 757 754 754 758 751 751 755 751 752 751 744 747 751 753 758 755 752 755 756 755 755 751 752 760 758 759 767 764 760 757 739 722 715 712 712 702 689 689 688 683 681 683 689 688 686 687 685 681 679 676
798 799 794 786 786 789 792 796 799 803 808 806 801 791 781 779 777 775 774 773 774 777 780 781 778 775 775 777 775 773 773 774 775 774 773 772 762 752 752 752 752 755 752 755 758 753 754 757 751 750 756 757 756 755 754 754 756 756 755 755 756 756 754 754 755 751 749 746 737 729 719 705 694 688 687 686 683 684 686 685 687 686 685 686 683 682 680 676
797 798 791 783 783 785 789 794 798 801 801 794 790 784 778 778 777 774 773 773 773 774 777 776 776 777 775 773 775 776 775 775 775 776 773 768 762 754 750 750 753 754 752 754 757 754 756 761 757 753 758 758 752 750 749 745 749 754 755 755 756 753 752 753 750 742 740 739 734 732 724 701 682 678 680 680 682 687 689 687 687 684 681 679 678 677 677 675
796 796 789 781 783 784 788 794 795 794 791 786 782 780 778 777 774 773 773 773 773 770 771 773 773 774 773 771 772 772 773 773 772 773 771 765 764 760 752 750 753 754 753 754 756 758 760 762 762 759 756 751 743 742 744 739 737 743 745 744 745 745 748 752 747 737 734 733 727 726 722 702 681 674 675 681 684 684 685 686 685 682 679 676 675 674 673 674
795 794 786 781 783 783 787 790 788 786 785 781 777 775 776 774 772 772 772 773 774 772 770 772 771 770 770 768 767 768 768 768 766 768 767 761 760 757 750 748 751 750 752 755 755 756 760 765 768 765 757 749 741 740 746 744 738 739 739 736 735 736 740 743 738 729 728 727 720 721 721 705 685 675 674 679 681 680 681 681 681 679 677 675 673 672 672 672
792 789 784 783 782 782 785 786 784 784 782 776 772 772 772 772 771 770 770 771 774 774 772 770 768 767 766 765 764 764 764 763 759 758 759 756 752 748 744 745 749 749 752 757 755 752 757 765 768 765 758 752 746 741 742 744 746 745 739 735 733 730 727 727 725 722 722 722 722 725 722 707 691 681 675 674 677 679 678 676 677 679 677 675 674 673 672 670
792 789 785 784 784 783 782 779 777 779 778 775 774 772 771 771 769 768 768 769 770 771 770 767 765 764 762 761 761 760 761 760 754 749 752 753 747 741 740 741 743 746 748 750 747 745 751 756 759 761 758 753 750 747 743 742 743 742 736 732 730 727 725 725 725 726 723 717 719 722 716 703 692 685 681 677 674 674 672 671 674 676 674 673 673 672 671 668
794 790 786 784 784 783 778 773 772 775 775 775 774 773 772 769 765 763 765 767 766 766 766 764 762 762 760 759 760 759 758 758 754 749 747 749 746 740 739 739 741 742 742 741 740 742 746 745 746 753 753 748 745 740 735 734 734 733 732 728 726 726 727 726 725 727 723 713 710 712 707 698 690 689 688 681 673 670 666 664 668 672 671 669 668 668 667 665
796 792 787 784 782 781 777 773 772 774 773 774 773 771 770 768 762 760 763 765 763 763 764 763 762 764 763 761 761 759 755 755 755 751 748 748 746 742 740 739 739 738 737 737 739 743 749 745 739 739 737 733 729 723 721 724 726 726 726 723 722 723 724 723 723 720 714 710 705 701 699 697 694 693 689 679 673 670 663 659 662 666 666 663 663 664 663 661
797 794 789 786 782 778 776 774 774 775 773 773 772 767 764 764 763 761 761 762 760 760 763 763 763 763 761 759 759 756 752 752 753 752 751 749 746 744 743 743 742 739 737 739 741 744 750 746 736 733 730 726 722 718 716 720 722 724 724 722 721 722 722 724 722 713 709 710 704 696 698 699 696 693 687 679 674 669 662 659 659 658 657 656 656 658 659 657
796 793 787 786 785 780 777 777 779 779 778 777 775 769 764 763 764 763 762 761 760 761 762 763 763 765 766 766 766 763 756 752 751 752 755 762 764 762 754 746 744 742 741 743 745 745 745 740 732 730 728 725 724 722 720 720 719 720 723 723 721 720 719 720 716 710 709 707 697 691 694 692 688 687 684 676 669 665 663 661 657 652 649 648 649 652 653 654
795 794 788 787 788 785 783 784 784 783 781 780 778 774 770 767 766 765 765 764 765 763 761 764 770 777 780 779 778 776 770 765 766 766 770 779 780 774 766 755 748 747 747 748 748 746 741 734 728 726 725 723 722 721 721 721 721 720 720 719 718 716 712 709 705 702 702 696 688 687 687 680 677 678 673 665 661 661 662 659 654 651 647 644 645 646 648 650
795 795 792 790 790 788 787 787 785 785 782 779 777 773 769 769 769 768 770 770 771 768 764 770 779 782 782 782 781 780 778 780 784 783 782 786 782 777 775 768 759 758 759 757 753 748 742 731 721 721 724 721 718 717 718 719 719 717 713 711 713 712 707 704 701 699 698 691 683 683 681 674 669 666 661 659 658 659 659 657 654 650 645 643 644 646 651 655
794 793 793 794 792 787 786 785 783 785 783 778 777 773 768 770 771 773 774 772 771 772 773 778 783 781 779 780 779 778 779 783 787 785 783 787 784 780 779 774 769 768 766 760 755 752 749 739 728 727 726 718 713 713 711 710 713 714 713 711 708 704 700 697 693 690 688 683 679 681 679 670 661 657 655 656 656 657 657 655 651 646 646 651 656 661 666 670
794 793 792 795 794 788 787 788 785 786 782 776 776 776 772 773 774 776 778 772 768 772 776 779 782 780 781 780 776 776 779 779 779 778 777 779 777 776 776 773 772 772 768 762 757 754 751 745 738 734 726 714 710 708 706 709 711 706 703 700 694 689 687 684 681 678 676 674 673 670 663 655 652 654 656 657 657 658 657 656 656 660 665 672 676 679 679 678